TimeCDT,TemperatureF,Dew PointF,Humidity,Sea Level PressureIn,VisibilityMPH,Wind Direction,Wind SpeedMPH,Gust SpeedMPH,PrecipitationIn,Events,Conditions,WindDirDegrees,DateUTC
12:05 AM,71.6,69.8,94,29.86,10.0,Calm,Calm,-,N/A,,Partly Cloudy,0,2012-06-10 05:05:00
12:53 AM,72.0,70.0,93,29.85,10.0,Calm,Calm,-,N/A,,Mostly Cloudy,0,2012-06-10 05:53:00
1:22 AM,71.6,69.8,94,29.86,10.0,ESE,3.5,-,N/A,,Overcast,120,2012-06-10 06:22:00
1:53 AM,72.0,70.0,93,29.83,10.0,Variable,4.6,-,N/A,,Overcast,0,2012-06-10 06:53:00
2:17 AM,71.6,69.8,94,29.85,10.0,Calm,Calm,-,N/A,,Overcast,0,2012-06-10 07:17:00
2:30 AM,71.6,69.8,94,29.85,10.0,Calm,Calm,-,N/A,,Overcast,0,2012-06-10 07:30:00
2:53 AM,72.0,70.0,93,29.84,10.0,Calm,Calm,-,N/A,,Overcast,0,2012-06-10 07:53:00
3:53 AM,72.0,71.1,97,29.82,10.0,Calm,Calm,-,N/A,,Overcast,0,2012-06-10 08:53:00
4:17 AM,71.6,71.6,100,29.84,10.0,East,3.5,-,N/A,,Overcast,90,2012-06-10 09:17:00
4:29 AM,71.6,71.6,100,29.84,10.0,Calm,Calm,-,N/A,,Overcast,0,2012-06-10 09:29:00
4:53 AM,72.0,71.1,97,29.82,10.0,Variable,3.5,-,N/A,,Overcast,0,2012-06-10 09:53:00
5:21 AM,73.4,71.6,94,29.84,10.0,Calm,Calm,-,N/A,Thunderstorm,Overcast,0,2012-06-10 10:21:00
5:31 AM,71.6,71.6,100,29.85,10.0,SE,4.6,-,N/A,,Overcast,140,2012-06-10 10:31:00
5:39 AM,71.6,71.6,100,29.85,8.0,SSE,8.1,-,0.00,Rain,Light Rain,160,2012-06-10 10:39:00
5:53 AM,72.0,71.1,97,29.83,5.0,South,5.8,-,0.03,Rain,Light Rain,180,2012-06-10 10:53:00
6:01 AM,71.6,71.6,100,29.84,6.0,ESE,3.5,-,0.00,Rain,Light Rain,120,2012-06-10 11:01:00
6:53 AM,71.1,70.0,96,29.84,10.0,Calm,Calm,-,0.02,,Partly Cloudy,0,2012-06-10 11:53:00
7:11 AM,71.6,71.6,100,29.85,9.0,Calm,Calm,-,N/A,,Scattered Clouds,0,2012-06-10 12:11:00
7:33 AM,71.6,71.6,100,29.86,8.0,Calm,Calm,-,N/A,,Mostly Cloudy,0,2012-06-10 12:33:00
7:53 AM,72.0,71.1,97,29.85,6.0,SSE,3.5,-,N/A,,Mostly Cloudy,150,2012-06-10 12:53:00
8:51 AM,71.6,71.6,100,29.90,8.0,SE,4.6,-,0.00,Rain,Light Rain,130,2012-06-10 13:51:00
8:53 AM,71.1,71.1,100,29.88,7.0,SE,4.6,-,0.00,Rain,Light Rain,130,2012-06-10 13:53:00
9:39 AM,71.6,71.6,100,29.91,10.0,SSE,6.9,-,0.01,,Overcast,160,2012-06-10 14:39:00
9:53 AM,72.0,71.1,97,29.89,10.0,SSE,8.1,-,0.01,,Overcast,150,2012-06-10 14:53:00
10:53 AM,73.0,71.1,93,29.90,10.0,SSE,9.2,-,0.00,,Overcast,150,2012-06-10 15:53:00
11:20 AM,73.4,71.6,94,29.91,10.0,SSE,8.1,-,N/A,,Overcast,160,2012-06-10 16:20:00
11:53 AM,75.0,72.0,90,29.89,10.0,South,4.6,-,N/A,,Overcast,180,2012-06-10 16:53:00
12:53 PM,77.0,72.0,84,29.89,10.0,SSW,4.6,-,N/A,,Mostly Cloudy,200,2012-06-10 17:53:00
1:29 PM,78.8,71.6,78,29.89,10.0,SW,4.6,-,N/A,,Mostly Cloudy,220,2012-06-10 18:29:00
1:53 PM,80.1,71.1,74,29.87,10.0,Variable,6.9,-,N/A,,Overcast,0,2012-06-10 18:53:00
2:29 PM,82.4,71.6,70,29.88,10.0,Variable,5.8,-,N/A,,Overcast,0,2012-06-10 19:29:00
2:53 PM,81.0,72.0,74,29.87,10.0,Variable,6.9,-,N/A,,Mostly Cloudy,0,2012-06-10 19:53:00
3:53 PM,77.0,75.0,94,29.88,9.0,South,4.6,-,0.07,Rain-Thunderstorm,Light Rain,190,2012-06-10 20:53:00
4:14 PM,77.0,75.2,94,29.90,2.5,South,12.7,16.1,0.07,Rain-Thunderstorm,Light Rain,190,2012-06-10 21:14:00
4:18 PM,75.2,73.4,94,29.90,0.8,South,8.1,16.1,0.21,Rain,Heavy Rain,170,2012-06-10 21:18:00
4:30 PM,75.2,73.4,94,29.89,2.5,SSW,3.5,-,0.29,Rain,Light Rain,200,2012-06-10 21:30:00
4:35 PM,75.2,73.4,94,29.90,4.0,ESE,3.5,-,0.30,Rain,Rain,120,2012-06-10 21:35:00
4:53 PM,73.9,73.0,97,29.90,10.0,East,4.6,-,0.30,Rain-Thunderstorm,Light Rain,100,2012-06-10 21:53:00
5:04 PM,73.4,73.4,100,29.90,10.0,SE,3.5,-,0.00,Thunderstorm,Overcast,140,2012-06-10 22:04:00
5:14 PM,75.2,73.4,94,29.90,10.0,SSE,5.8,-,0.00,,Overcast,150,2012-06-10 22:14:00
5:27 PM,75.2,73.4,94,29.90,10.0,SSE,4.6,-,0.00,,Overcast,150,2012-06-10 22:27:00
5:46 PM,75.2,73.4,94,29.90,5.0,SSE,8.1,-,0.00,Rain,Light Rain,160,2012-06-10 22:46:00
5:53 PM,75.0,73.9,96,29.88,5.0,SSE,6.9,-,0.01,Rain,Light Rain,160,2012-06-10 22:53:00
6:01 PM,75.2,73.4,94,29.90,7.0,SSE,5.8,-,0.00,Rain,Light Rain,150,2012-06-10 23:01:00
6:10 PM,75.2,73.4,94,29.89,10.0,SE,6.9,-,0.00,,Mostly Cloudy,140,2012-06-10 23:10:00
6:42 PM,75.2,73.4,94,29.91,10.0,SE,6.9,-,0.00,,Mostly Cloudy,140,2012-06-10 23:42:00
6:53 PM,75.9,73.9,94,29.89,10.0,SE,4.6,-,0.00,,Mostly Cloudy,140,2012-06-10 23:53:00
7:24 PM,75.2,73.4,94,29.91,10.0,SE,3.5,-,N/A,,Scattered Clouds,140,2012-06-11 00:24:00
7:45 PM,75.2,73.4,94,29.91,10.0,SSE,4.6,-,N/A,,Mostly Cloudy,150,2012-06-11 00:45:00
7:53 PM,75.0,73.9,96,29.89,10.0,SE,5.8,-,N/A,,Mostly Cloudy,140,2012-06-11 00:53:00
8:37 PM,73.4,73.4,100,29.90,10.0,SSE,6.9,-,N/A,,Scattered Clouds,160,2012-06-11 01:37:00
8:53 PM,73.9,73.0,97,29.89,10.0,SSE,4.6,-,N/A,,Partly Cloudy,150,2012-06-11 01:53:00
9:53 PM,73.9,73.0,97,29.90,9.0,South,3.5,-,N/A,,Clear,170,2012-06-11 02:53:00
10:37 PM,73.4,73.4,100,29.93,9.0,Calm,Calm,-,N/A,,Mostly Cloudy,0,2012-06-11 03:37:00
10:44 PM,73.4,73.4,100,29.93,8.0,SSE,3.5,-,N/A,,Scattered Clouds,160,2012-06-11 03:44:00
10:53 PM,73.0,73.0,100,29.92,8.0,SSE,3.5,-,N/A,,Mostly Cloudy,160,2012-06-11 03:53:00
11:26 PM,73.4,73.4,100,29.95,8.0,SSE,3.5,-,N/A,,Mostly Cloudy,150,2012-06-11 04:26:00
11:53 PM,73.0,73.0,100,29.94,7.0,SSE,4.6,-,N/A,,Overcast,160,2012-06-11 04:53:00